STARLINK-5683, 55452

Orbit data source: Space-Track

STARLINK-5683, 55452 is a payload satellite owned by SpaceX/Seattle (US) in LEO that was launched on Thu, 02 Feb 2023 UTC via an FALCON 9 launch vehicle from the Air Force Eastern Test Range (AFETR). Payload-class satellites include a variety of spacecraft equipped with specific instruments for various scientific and technological missions. These include communications satellites like Starlink; space stations such as the ISS; scientific satellites like the Hubble; Earth observation satellites from companies like Planet Labs, Umbra, and HawkEye 360; GPS; miniature CubeSats for education and research; and military/defense satellites.

Loading next visibility...
Identifier
55452, 2023-015D
Orbit
LEO
Country
Flag of USUS
Related business
Manufacturer
SpaceX/Seattle
Mission
Operational Commercial Communications
Bus & Motor
STARLINK, Unknown motor
Mass
305 kg wet, ~290 kg dry
Launch date (UTC)
2023-02-02 (3 years ago)
Launch vehicle
FALCON 9
Launch site
Air Force Eastern Test Range (AFETR)
Object type
Payload
Rocket body
Debris
Shape & HBR
Box + 1 Pan, 10.1 m
Radar Cross Section
13.562 m², Large (>1 m²)

Expand to show TLE details & history
Last TLE update: 13 hours ago

TLE from 13 hours ago
0 STARLINK-5683
1 55452U 23015D   25288.59201848  .00000608  00000-0  60072-4 0  9997
2 55452  43.0029  34.7445 0000949 266.9310  93.1424 15.02540226148921
Epoch: 2025-10-15T14:12Z
TLE epoch observation values (Epoch: 2025-10-15T14:12:30.396Z)
Latitude
-0.00001°
Longitude
157.25395°
Altitude
558.881 km
Speed
7.584 km/s
True Right ascension
02h 18m 58s
True Declination
0° 00' 00"
Sunlit
Object was in full shadow at epoch
Visualization orbit readout
Latitude
Unknown
Longitude
Unknown
Altitude
Unknown
Speed
Unknown
Apparent Right ascension
Unknown
Apparent Declination
Unknown
Sunlit
N/A
Visualization observer readout
Local Sidereal Time
22:01:38
Azimuth
Unknown
Elevation
Unknown
Doppler factor
Unknown
Orbital elements
Apogee altitude
561.649 km
Perigee altitude
560.331 km
Semi-major axis
6,939.127 km
Eccentricity
0.00009
Inclination
43.0029°
RAAN
34.7445°
Arg. of periapsis
266.931°
True anomaly
93.15326°
Mean anomaly
93.1424°
Eccentric anomaly
93.14783°
Mean motion
3.75479 °/min
Orbital period
95.88 mins
BSTAR
0.000060072
Loading maneuver chart data...
Computing Atmospheric mass density...
Loading historical data...
Loading historical data...
Loading historical data...
Loading historical data...
Loading historical data...
Loading historical data...
Loading historical data...

Documentation

Showing up to 5 results
|